Temperature
21 21 21 21 21 22 23 25 26 25 25 25 25 24 23 22 21 19 18 18 18 18 18 18 18 18 18 18 17 17 17 17 17 17 17 17 17 17 17 17 17 17 17 17 17 17 18 18 18
21 21 21 22 22 23 24 25 25 25 25 25 25 24 23 21 19 18 18 18 18 18 17 18 18 17 17 17 17 17 17 17 17 17 17 17 17 17 17 17 17 17 17 17 17 17 17 17 18
21 21 22 22 23 24 24 25 25 25 25 25 24 23 22 20 19 18 18 18 18 17 17 18 17 17 17 17 17 17 17 17 17 17 16 16 16 16 16 16 16 17 17 17 17 17 17 17 17
21 22 23 23 24 25 25 25 26 25 25 25 24 22 20 20 19 18 18 18 18 17 17 17 17 17 17 17 17 17 17 17 16 16 16 16 16 16 16 16 16 16 16 16 16 16 17 17 17
22 22 23 24 25 26 26 26 26 25 25 25 24 21 19 19 19 19 19 18 18 17 17 17 17 17 17 17 17 16 16 16 16 16 16 16 16 16 16 16 16 16 16 16 16 16 16 17 17
23 24 23 24 25 26 26 26 25 25 24 24 23 21 19 19 19 19 19 19 18 17 17 17 17 17 17 17 16 16 16 16 16 16 16 16 16 16 16 16 16 16 16 16 16 16 16 17 17
23 23 24 25 24 25 25 25 25 25 24 23 23 21 19 19 19 19 19 18 18 18 17 17 17 17 17 17 17 16 16 16 16 16 16 16 16 16 16 16 16 16 16 16 16 16 17 17 17
23 23 24 25 24 24 25 25 25 24 23 23 23 21 19 19 19 19 18 18 18 18 18 17 17 17 17 17 17 16 16 16 16 16 16 16 16 16 16 16 16 16 16 16 16 17 17 17 17
23 23 23 24 24 24 25 25 24 23 23 22 22 21 19 19 19 19 19 18 18 18 18 18 18 17 17 17 17 17 16 16 16 16 16 16 16 16 16 16 16 16 16 16 16 17 17 17 17
24 23 24 25 25 25 24 24 24 24 23 22 21 20 19 19 19 19 19 19 18 18 18 18 18 18 17 17 17 17 17 16 16 16 16 16 16 16 16 16 16 16 16 16 16 17 17 17 17
25 24 25 25 25 25 24 24 24 23 22 22 21 20 19 19 20 20 19 19 19 19 19 19 18 18 18 17 17 17 17 17 17 17 17 17 17 16 16 16 16 16 16 16 16 17 17 17 17
25 25 25 25 25 25 24 24 23 23 22 22 21 20 20 20 20 20 20 19 19 19 19 19 19 18 18 18 17 17 17 17 17 17 17 17 17 17 16 16 16 16 16 16 16 16 17 17 17
25 25 25 24 24 24 24 23 23 22 22 21 21 20 20 20 20 20 20 20 19 19 19 19 19 19 18 18 18 18 17 17 17 17 17 17 17 17 17 17 16 16 16 16 16 16 16 17 17
25 24 24 24 24 24 24 23 23 22 22 21 21 20 21 21 20 20 20 20 19 19 19 19 19 19 18 18 18 18 17 17 17 17 17 17 17 17 17 16 16 16 16 16 16 16 16 16 16
24 24 24 24 24 24 24 23 23 22 22 21 21 21 21 21 20 20 20 20 20 19 19 19 19 18 18 18 18 17 17 17 17 17 17 17 17 17 16 16 16 16 16 16 16 16 16 16 16
24 23 22 24 24 24 23 21 23 22 22 21 21 21 21 21 21 21 20 20 20 20 19 19 19 18 18 18 17 17 17 17 17 16 17 17 17 17 16 16 16 16 16 16 16 16 16 16 16
23 23 23 23 24 24 23 22 22 22 22 22 21 21 20 20 21 21 20 20 20 19 19 19 18 18 17 17 17 17 17 17 16 16 16 16 16 16 16 16 16 16 16 16 16 16 16 16 16
23 23 23 23 24 24 23 22 22 22 22 22 21 21 20 20 21 20 20 20 20 19 19 18 18 18 17 17 17 17 16 16 16 16 16 16 16 16 16 16 16 16 16 16 16 16 16 16 16
24 23 23 23 24 23 23 22 22 22 22 22 21 21 21 21 20 20 20 20 19 19 19 18 18 18 17 17 17 17 16 16 16 15 15 16 16 16 16 16 16 16 15 15 16 16 16 16 16
23 23 23 23 24 23 22 22 23 22 22 22 22 21 21 21 20 20 20 20 19 19 19 19 18 18 17 17 17 17 16 16 16 15 15 15 15 16 16 16 16 16 15 15 15 15 15 16 16
23 23 23 23 23 23 22 22 22 23 23 22 22 21 21 21 20 20 20 20 19 19 19 19 18 18 17 17 17 17 16 16 16 15 15 15 15 15 16 16 16 15 15 15 15 15 15 15 16
22 23 23 23 22 21 22 21 22 22 22 22 22 22 21 21 21 20 20 20 19 19 19 19 18 18 17 17 17 17 16 16 16 15 15 15 15 15 15 16 16 15 15 15 15 15 15 15 16
22 23 23 23 22 21 22 22 22 23 21 22 22 22 22 21 21 20 20 20 19 19 19 19 18 18 17 17 17 16 16 16 16 15 15 15 15 15 15 16 16 16 15 15 15 15 15 15 16
23 23 22 22 21 20 22 22 21 23 22 22 22 22 22 21 21 20 20 20 19 19 19 19 18 18 17 17 17 16 16 16 16 16 16 15 15 15 16 16 16 16 15 15 15 15 15 15 16
22 21 20 20 20 20 23 23 22 24 24 23 23 22 22 21 21 20 20 19 19 19 19 18 18 18 17 17 17 17 16 16 16 16 16 16 15 15 16 16 16 16 16 15 15 15 15 15 15
22 22 20 20 20 21 23 22 23 25 25 24 23 23 22 21 21 20 20 19 19 19 19 18 18 18 17 17 17 17 17 17 16 16 16 16 16 16 16 16 16 16 16 16 16 16 15 15 15
22 22 22 21 21 21 22 23 24 24 24 24 24 23 22 21 21 20 20 19 19 19 19 18 18 18 18 18 17 17 17 17 16 16 16 16 16 16 16 16 16 16 16 16 16 16 16 15 15
23 22 22 21 20 20 22 22 22 23 23 23 23 23 22 22 21 21 20 19 19 19 19 18 18 18 18 18 17 17 17 17 17 17 16 16 16 16 16 16 16 16 16 16 15 15 15 15 15
22 22 22 21 21 20 20 21 23 23 24 24 24 23 22 22 21 21 20 20 19 19 19 18 18 18 18 18 17 17 17 17 17 16 16 16 16 16 16 16 16 16 16 16 15 15 15 15 15
23 23 22 20 20 20 20 21 24 24 24 24 24 23 22 22 21 21 20 20 19 19 18 18 18 18 18 18 18 17 17 17 17 17 17 17 17 17 16 16 16 16 16 16 15 15 15 15 15
Wind_Speed
12 10 7 3 3 3 1 5 8 7 6 9 10 10 12 11 8 7 2 5 11 12 14 13 13 13 13 13 12 11 11 10 11 11 11 11 10 9 9 9 9 9 9 9 9 9 8 8 8
10 8 4 3 3 2 2 7 11 10 7 6 8 11 12 10 9 7 4 6 11 13 14 13 13 13 14 13 13 12 12 11 11 11 11 10 10 9 9 9 9 8 8 8 8 7 7 7 7
11 7 4 3 3 1 4 8 9 9 6 6 7 11 8 6 8 5 5 8 12 14 14 14 14 13 14 14 13 13 12 12 11 11 10 9 9 9 8 8 8 7 7 7 7 6 6 6 5
6 4 4 4 4 5 6 8 7 7 6 6 8 9 8 9 6 7 7 11 13 13 15 14 14 14 14 13 13 13 13 12 11 10 10 9 9 8 8 7 7 7 7 6 6 6 5 5 5
4 4 5 4 1 6 7 7 6 6 5 7 11 10 9 10 11 9 8 11 13 13 14 14 15 14 14 13 13 13 12 11 10 10 9 8 8 7 7 7 7 7 6 6 6 5 5 5 5
4 4 4 3 3 6 6 6 6 7 7 8 10 11 7 9 9 8 8 10 12 12 14 14 15 15 14 13 12 11 10 10 9 8 8 7 7 7 7 7 6 6 6 6 5 5 5 4 3
4 4 6 3 4 5 5 5 5 6 7 6 7 9 8 9 7 8 9 9 9 10 12 13 13 14 14 13 12 10 9 8 7 6 6 5 5 6 6 6 6 6 5 5 5 4 3 2 2
4 5 6 2 3 5 6 4 5 6 6 5 5 7 9 9 8 8 8 9 8 8 8 10 12 14 13 12 11 10 8 7 6 5 5 5 5 6 6 6 5 5 4 3 3 3 2 1 0
5 4 5 2 4 4 6 4 5 4 7 6 7 10 14 13 10 9 8 8 6 7 6 7 8 10 12 12 11 10 9 7 7 6 6 6 7 8 7 7 6 4 3 2 2 2 2 2 3
4 3 3 4 5 5 5 4 5 4 7 9 11 14 15 12 10 10 9 9 7 6 6 7 6 6 7 7 9 9 8 7 6 5 5 5 4 5 7 9 7 5 4 3 4 4 4 5 6
3 2 2 4 5 5 5 4 4 5 6 9 12 14 14 11 9 8 9 9 7 7 5 6 6 6 6 4 5 4 5 5 4 3 4 4 4 5 7 7 7 7 6 5 4 5 4 3 1
2 2 2 3 4 3 3 4 5 5 6 10 12 13 12 10 8 8 9 9 7 6 5 4 5 6 6 5 3 3 3 3 4 4 5 5 2 2 3 3 2 4 3 1 1 1 3 3 3
2 1 1 2 3 2 4 5 5 7 8 11 12 12 11 10 9 7 8 8 8 7 5 4 4 6 6 3 0 4 4 4 6 3 3 5 2 2 1 3 3 3 3 2 2 3 4 5 6
1 1 2 2 2 3 4 5 5 7 9 10 11 10 9 8 9 9 8 8 8 6 6 4 4 5 5 4 2 3 4 4 6 3 3 6 4 3 2 3 2 3 3 4 4 4 4 4 4
1 3 3 4 4 3 4 3 5 9 10 10 10 9 8 9 8 8 8 7 8 7 7 5 5 5 6 6 5 4 4 6 5 4 5 6 5 6 4 3 3 3 5 6 5 5 4 4 4
6 6 6 6 6 5 5 4 6 10 10 9 9 9 8 7 8 7 8 7 7 8 9 6 6 7 8 6 4 4 6 6 5 6 8 7 8 10 6 3 3 5 5 4 3 3 4 4 4
8 7 7 6 7 5 5 4 7 9 10 10 10 10 9 8 8 8 7 6 7 8 8 7 6 7 7 5 4 5 5 5 6 7 8 9 10 10 7 3 3 6 4 3 4 4 3 3 3
5 6 5 6 7 7 6 5 9 10 10 10 10 10 10 9 8 8 7 7 6 6 8 8 7 7 5 3 4 4 4 4 6 6 6 7 8 9 7 4 5 5 4 4 4 4 3 2 3
6 5 4 4 5 5 6 6 9 10 9 9 10 10 10 9 8 8 8 8 6 5 7 8 7 6 4 2 3 4 3 4 4 4 6 6 7 7 6 4 4 4 4 4 5 3 3 3 3
6 6 4 3 4 4 5 7 8 11 12 12 11 11 11 10 10 8 8 7 7 6 6 7 7 6 5 2 4 4 4 4 4 3 5 7 8 7 5 4 3 3 3 4 4 3 2 1 2
6 6 5 3 3 4 5 7 9 11 11 11 11 11 11 12 12 11 9 7 7 6 5 6 7 6 6 5 4 5 4 3 3 4 3 5 8 8 7 6 3 2 3 3 3 3 3 1 1
5 5 4 4 4 4 6 5 7 11 12 12 12 11 11 12 12 11 9 9 8 8 6 7 7 6 6 6 4 4 4 3 3 3 3 4 6 7 6 5 4 3 3 3 3 4 2 2 1
4 4 4 6 6 7 8 7 6 12 12 14 13 12 11 11 12 12 11 9 8 8 6 6 7 7 6 7 5 3 4 3 3 4 4 4 4 5 6 6 5 4 3 4 5 5 4 2 2
3 4 5 6 5 7 10 8 4 9 13 14 14 13 12 11 11 11 10 9 7 8 6 6 7 7 7 6 5 4 5 5 4 4 4 4 3 3 3 5 4 4 3 4 3 3 3 3 3
5 4 3 4 4 5 6 5 4 6 9 12 14 14 14 12 11 11 11 10 9 9 8 7 8 7 6 5 6 6 5 5 5 4 3 4 3 3 3 4 3 3 3 4 4 3 3 3 4
6 7 4 2 3 2 4 4 2 5 6 10 12 12 14 14 13 13 12 11 10 10 10 9 8 8 7 6 5 6 5 4 3 3 4 4 3 3 3 4 3 3 4 4 4 3 3 4 4
5 6 7 6 8 5 3 3 5 6 6 8 11 12 14 15 14 14 13 12 11 11 10 9 9 8 8 6 5 5 5 5 4 3 4 4 4 4 4 4 4 4 4 4 4 4 5 5 5
7 5 4 3 3 3 3 3 3 7 8 7 9 10 11 14 14 14 13 12 10 10 9 9 9 9 8 7 6 5 5 5 4 3 4 4 5 4 4 4 4 4 4 4 4 4 4 5 4
7 7 5 3 4 3 2 1 1 4 6 7 8 9 10 11 13 13 13 12 11 11 10 9 8 8 8 7 6 6 6 5 4 4 4 4 4 4 3 3 4 4 4 4 4 3 3 3 3
6 7 6 4 3 3 2 2 1 3 5 5 6 8 9 10 10 12 13 12 11 11 11 10 8 8 7 7 7 7 6 6 6 5 4 3 4 4 4 3 4 4 4 5 5 4 3 3 4
Wind_Direction
293 269 250 239 253 242 297 66 74 69 62 53 49 64 71 53 55 92 135 99 102 102 103 95 91 90 89 90 90 90 89 89 90 91 90 88 86 83 80 74 72 71 69 66 64 62 59 57 57
290 290 270 237 251 279 49 69 71 71 77 80 64 68 73 67 73 95 104 96 98 97 93 92 93 93 92 90 88 90 89 90 93 92 90 88 86 83 80 75 71 69 67 64 62 60 57 56 53
274 266 263 248 268 11 79 80 86 87 79 73 75 63 59 72 81 99 123 105 95 94 94 94 95 94 93 91 88 88 88 89 92 90 89 88 87 84 81 80 76 71 67 62 59 58 56 56 52
277 257 245 251 287 54 84 97 99 96 80 68 84 76 65 62 89 114 115 103 100 100 98 99 99 97 95 93 92 91 89 87 87 85 84 85 86 83 80 81 79 74 68 61 57 57 57 55 47
255 258 253 258 268 72 73 87 93 85 85 73 82 89 83 80 95 107 108 105 102 104 105 104 104 101 98 96 94 92 92 91 89 88 86 85 86 86 85 82 77 72 66 60 58 57 56 54 45
267 256 268 267 104 91 82 77 88 92 91 87 95 102 98 104 105 106 98 96 103 107 111 112 112 108 103 100 98 96 95 94 93 93 94 93 95 92 89 83 77 72 67 64 60 57 62 56 41
277 280 273 277 109 105 92 69 66 80 89 85 97 106 115 111 107 106 99 94 101 111 119 124 126 118 112 108 106 103 103 104 105 108 114 121 124 116 107 97 86 79 73 70 66 65 70 66 44
280 287 280 283 107 99 93 80 69 76 86 86 94 117 128 129 124 112 108 110 112 116 123 129 131 131 130 123 122 124 126 129 134 140 155 163 167 152 137 122 106 95 88 88 88 86 97 125 225
273 264 292 5 86 100 114 108 83 85 100 86 76 102 126 136 132 126 118 108 105 109 117 120 124 133 137 135 137 149 151 162 172 187 199 190 191 174 154 124 132 130 132 148 163 178 194 217 237
232 278 322 39 73 111 122 121 120 117 110 103 99 108 125 139 143 143 137 132 133 132 125 122 125 125 118 117 144 164 155 166 180 177 185 191 138 118 127 140 155 166 179 205 223 231 235 234 233
251 268 345 49 73 106 130 132 120 124 114 121 126 132 141 151 152 145 137 128 123 123 122 124 124 118 118 109 109 111 127 151 134 124 125 104 102 130 134 156 173 192 197 224 214 222 238 223 161
271 339 19 60 80 108 128 119 105 102 111 124 133 142 150 158 153 146 132 124 127 118 111 107 118 119 101 95 117 143 113 103 75 36 73 82 73 90 102 127 140 157 150 164 109 81 60 48 65
229 183 113 94 102 120 114 117 113 112 116 127 137 147 159 156 142 131 122 121 114 105 104 87 77 100 104 93 126 96 73 78 88 30 51 94 72 61 84 94 83 68 74 80 58 60 55 41 47
134 129 147 148 144 150 145 142 138 134 135 140 145 152 158 146 140 135 133 132 130 135 121 112 101 97 116 122 94 83 98 92 81 28 38 80 85 78 58 75 65 72 72 57 65 73 62 60 49
195 220 208 197 199 179 159 168 162 148 153 155 156 157 155 146 142 144 141 143 141 141 122 97 98 89 80 71 65 84 81 78 69 28 28 69 72 75 67 60 55 53 69 70 55 59 59 69 67
220 225 226 201 191 195 200 195 161 158 162 157 158 153 147 147 151 146 137 140 131 123 114 110 100 85 76 68 55 62 68 72 67 41 21 39 65 75 58 50 49 60 55 75 73 56 58 60 65
226 231 221 189 188 194 206 186 164 168 167 162 159 151 154 165 154 140 136 129 116 118 120 118 97 89 86 92 79 63 70 63 65 55 31 27 43 67 65 50 51 57 48 50 74 61 61 65 72
241 238 225 201 180 199 203 191 173 181 179 170 161 157 161 166 157 144 132 115 101 106 112 108 97 98 103 96 88 68 61 55 55 55 48 32 43 58 56 59 57 59 50 47 72 81 68 65 52
299 288 262 214 172 195 218 204 182 180 183 177 171 167 166 166 160 149 132 124 119 116 114 119 127 121 120 110 105 100 87 77 62 55 43 39 53 61 61 63 57 55 58 60 69 71 71 66 81
269 274 254 206 172 200 225 226 198 187 190 184 179 177 173 170 162 152 148 147 146 142 140 139 128 117 105 88 108 109 102 96 88 60 45 44 49 46 63 70 82 77 68 63 70 69 59 42 84
262 258 253 248 205 223 226 236 216 193 192 180 182 183 178 176 168 164 165 153 143 152 163 138 128 130 127 105 80 88 85 93 95 85 54 48 53 43 42 48 62 79 85 80 80 79 78 55 26
269 276 262 249 248 247 218 242 216 190 186 186 187 189 185 181 171 169 166 153 156 162 164 145 140 128 117 114 103 115 114 104 102 109 111 80 66 55 43 41 45 59 70 72 67 74 70 78 34
275 307 276 257 258 266 250 249 219 181 189 195 192 192 187 179 171 170 164 159 161 152 150 136 126 119 113 110 112 111 111 112 107 111 112 97 78 66 51 44 39 56 66 68 62 56 37 54 51
250 278 265 254 255 254 241 235 224 193 196 195 192 191 188 181 171 166 158 153 152 140 136 125 125 123 120 134 147 135 128 124 123 123 121 116 108 86 70 62 47 50 56 62 69 75 59 48 41
223 243 248 221 216 241 230 224 220 196 185 187 187 187 185 180 170 166 163 160 157 148 144 136 131 132 145 171 159 150 159 146 139 133 122 118 114 102 83 78 60 56 58 61 60 57 71 65 60
221 231 252 274 253 256 223 223 189 156 160 176 179 182 179 177 174 175 172 165 162 154 151 153 151 154 164 182 170 152 138 121 114 123 123 119 115 114 104 91 81 74 72 66 57 50 56 67 68
232 241 258 283 291 277 229 192 154 144 155 169 173 174 176 177 175 172 166 166 164 159 159 161 159 163 170 181 158 136 135 128 139 138 122 120 124 123 110 109 99 77 68 68 63 58 57 52 47
253 264 259 253 291 286 253 229 172 158 165 169 168 170 174 172 172 170 164 164 163 158 161 164 170 169 170 170 157 143 138 130 131 119 116 123 113 109 125 130 125 114 96 79 67 65 67 78 64
221 238 245 251 250 280 306 336 81 150 153 164 168 169 172 171 170 168 163 164 163 158 163 169 173 163 161 160 148 143 138 141 139 119 116 125 133 138 134 131 123 120 116 106 93 92 74 85 92
239 236 239 246 266 262 272 277 127 127 135 145 158 164 167 168 166 161 160 164 165 165 170 172 170 160 158 154 151 153 149 156 146 148 164 169 143 141 132 119 110 104 99 101 102 97 85 69 73
Height
1504 1504 1505 1507 1508 1508 1505 1497 1493 1496 1498 1501 1501 1502 1507 1512 1517 1528 1528 1526 1527 1527 1526 1527 1528 1528 1529 1530 1531 1532 1533 1534 1535 1535 1536 1537 1538 1538 1539 1540 1540 1540 1541 1541 1541 1542 1542 1542 1543
1504 1505 1507 1507 1508 1512 1507 1497 1498 1500 1502 1503 1504 1506 1510 1516 1521 1524 1526 1527 1528 1528 1528 1528 1529 1529 1530 1531 1532 1533 1533 1534 1535 1536 1537 1537 1538 1539 1539 1540 1540 1541 1541 1541 1542 1542 1542 1543 1543
1504 1505 1507 1504 1504 1507 1507 1499 1499 1502 1503 1503 1506 1510 1515 1520 1523 1525 1527 1528 1528 1528 1529 1529 1530 1530 1531 1532 1533 1534 1534 1535 1536 1536 1537 1538 1538 1539 1540 1540 1540 1541 1541 1542 1542 1542 1542 1543 1543
1506 1507 1505 1504 1505 1498 1497 1498 1500 1502 1504 1505 1507 1514 1520 1523 1525 1527 1528 1529 1529 1529 1530 1530 1531 1532 1532 1533 1534 1535 1535 1536 1537 1537 1538 1538 1539 1540 1540 1540 1541 1541 1542 1542 1542 1542 1543 1543 1543
1506 1506 1504 1504 1500 1496 1496 1498 1501 1503 1505 1507 1510 1518 1524 1526 1527 1528 1529 1531 1530 1531 1531 1532 1533 1533 1534 1534 1535 1536 1536 1537 1538 1538 1539 1539 1540 1541 1541 1541 1542 1542 1542 1542 1542 1543 1543 1543 1544
1507 1503 1507 1507 1500 1497 1498 1501 1502 1505 1508 1510 1513 1519 1526 1528 1529 1530 1531 1532 1532 1533 1533 1533 1534 1535 1536 1536 1537 1537 1538 1538 1539 1539 1540 1540 1541 1542 1542 1542 1542 1543 1543 1543 1543 1543 1544 1544 1544
1507 1504 1504 1501 1501 1502 1501 1503 1504 1506 1509 1512 1514 1520 1526 1529 1530 1531 1533 1533 1534 1535 1534 1535 1536 1537 1537 1538 1539 1539 1539 1540 1540 1541 1541 1542 1542 1543 1543 1543 1544 1544 1544 1544 1544 1544 1544 1545 1545
1506 1504 1501 1499 1501 1504 1503 1505 1507 1509 1512 1514 1515 1519 1525 1529 1531 1532 1534 1535 1536 1536 1537 1537 1538 1538 1539 1540 1541 1541 1541 1542 1542 1542 1543 1543 1544 1544 1545 1545 1545 1545 1545 1545 1545 1546 1546 1546 1547
1505 1506 1506 1501 1502 1504 1504 1506 1509 1511 1513 1515 1517 1519 1524 1529 1531 1533 1535 1536 1538 1539 1539 1540 1541 1541 1541 1542 1543 1543 1543 1543 1544 1544 1545 1545 1545 1546 1546 1546 1547 1546 1546 1546 1547 1547 1547 1548 1549
1504 1507 1503 1498 1498 1502 1505 1507 1510 1512 1514 1517 1520 1523 1526 1529 1532 1534 1535 1537 1539 1540 1541 1542 1543 1544 1544 1545 1544 1544 1545 1545 1545 1546 1546 1547 1547 1548 1548 1548 1548 1548 1548 1548 1549 1549 1549 1549 1550
1501 1502 1500 1499 1500 1503 1506 1508 1510 1512 1516 1518 1521 1524 1528 1530 1532 1534 1536 1538 1540 1541 1543 1544 1544 1545 1546 1546 1547 1547 1548 1547 1548 1548 1549 1549 1549 1549 1549 1549 1549 1549 1550 1550 1550 1550 1550 1551 1552
1501 1500 1500 1502 1503 1505 1507 1509 1511 1513 1517 1519 1522 1525 1528 1530 1532 1535 1537 1539 1541 1542 1544 1545 1546 1546 1547 1548 1548 1548 1549 1549 1549 1550 1550 1550 1550 1551 1550 1551 1551 1551 1551 1551 1552 1552 1552 1552 1553
1502 1502 1503 1504 1506 1507 1508 1510 1513 1516 1518 1520 1523 1525 1528 1530 1533 1535 1537 1539 1541 1543 1544 1546 1547 1547 1548 1548 1549 1550 1550 1550 1550 1551 1551 1551 1551 1552 1552 1552 1552 1552 1553 1553 1553 1553 1553 1554 1554
1502 1503 1504 1505 1506 1508 1509 1511 1513 1517 1519 1521 1524 1526 1528 1530 1533 1535 1538 1540 1542 1543 1545 1546 1548 1548 1549 1549 1550 1551 1551 1551 1551 1552 1553 1553 1552 1553 1553 1553 1553 1553 1554 1554 1554 1555 1555 1555 1556
1504 1505 1505 1506 1506 1508 1510 1513 1513 1516 1519 1521 1524 1526 1528 1531 1533 1535 1538 1540 1542 1544 1545 1547 1548 1549 1550 1550 1551 1552 1552 1552 1553 1553 1553 1554 1554 1553 1554 1554 1554 1555 1555 1555 1556 1556 1557 1557 1558
1503 1506 1510 1505 1505 1507 1512 1519 1513 1515 1518 1520 1523 1526 1529 1532 1534 1536 1538 1540 1542 1544 1545 1547 1549 1550 1550 1551 1552 1553 1553 1553 1554 1554 1554 1554 1555 1554 1554 1555 1555 1556 1556 1557 1557 1557 1558 1559 1559
1505 1509 1508 1505 1503 1505 1509 1515 1513 1515 1516 1520 1523 1526 1529 1531 1534 1536 1538 1540 1542 1544 1546 1548 1549 1550 1551 1552 1553 1553 1554 1554 1555 1555 1555 1555 1555 1555 1555 1556 1556 1557 1557 1557 1558 1559 1559 1560 1560
1507 1504 1503 1505 1502 1504 1508 1511 1511 1513 1515 1518 1521 1524 1528 1531 1533 1535 1538 1540 1542 1545 1546 1548 1550 1551 1552 1553 1554 1554 1555 1555 1555 1555 1556 1556 1556 1557 1557 1557 1557 1558 1558 1559 1559 1560 1560 1561 1562
1499 1501 1503 1501 1499 1503 1507 1508 1509 1511 1514 1517 1520 1523 1527 1530 1533 1535 1538 1540 1542 1545 1547 1548 1550 1552 1553 1554 1554 1555 1555 1556 1556 1556 1557 1558 1558 1558 1558 1558 1558 1559 1559 1560 1560 1561 1562 1562 1563
1500 1503 1504 1501 1498 1503 1507 1508 1506 1508 1511 1514 1517 1521 1524 1528 1531 1534 1537 1539 1542 1545 1547 1548 1551 1552 1553 1554 1555 1556 1556 1557 1557 1558 1558 1558 1559 1559 1559 1559 1559 1560 1560 1561 1561 1562 1563 1563 1564
1501 1503 1502 1503 1501 1501 1506 1511 1506 1505 1508 1511 1515 1519 1522 1526 1529 1532 1535 1539 1541 1544 1547 1549 1550 1552 1553 1554 1555 1556 1557 1558 1558 1558 1559 1559 1559 1560 1560 1560 1561 1561 1561 1562 1562 1563 1563 1564 1565
1505 1498 1499 1502 1507 1510 1507 1518 1506 1502 1505 1508 1512 1516 1519 1522 1526 1530 1534 1537 1540 1544 1546 1548 1550 1552 1553 1555 1556 1557 1558 1559 1559 1560 1560 1560 1560 1561 1561 1561 1562 1562 1562 1563 1563 1564 1564 1565 1565
1502 1498 1500 1502 1506 1510 1505 1511 1505 1498 1505 1506 1508 1512 1516 1520 1523 1528 1532 1536 1539 1543 1546 1548 1550 1552 1553 1554 1556 1557 1558 1559 1560 1561 1561 1561 1561 1562 1562 1562 1563 1563 1563 1564 1564 1564 1565 1565 1566
1499 1501 1501 1502 1507 1518 1505 1508 1507 1496 1497 1500 1504 1508 1512 1517 1521 1526 1530 1534 1538 1541 1545 1547 1549 1551 1553 1555 1556 1557 1559 1560 1561 1562 1562 1562 1562 1563 1563 1563 1564 1564 1564 1565 1565 1565 1565 1565 1566
1500 1509 1518 1520 1522 1515 1495 1500 1500 1486 1487 1492 1498 1503 1509 1514 1519 1523 1528 1532 1536 1540 1543 1546 1549 1551 1553 1555 1557 1558 1559 1560 1561 1562 1563 1563 1564 1564 1564 1564 1564 1565 1565 1565 1566 1566 1566 1566 1566
1500 1504 1518 1525 1520 1509 1496 1499 1491 1481 1485 1489 1495 1500 1505 1511 1516 1521 1525 1530 1534 1538 1541 1545 1548 1550 1553 1554 1557 1558 1560 1561 1562 1563 1564 1564 1565 1565 1565 1565 1565 1566 1566 1566 1567 1567 1567 1567 1568
1499 1500 1498 1508 1508 1509 1501 1492 1485 1482 1485 1488 1492 1497 1502 1508 1513 1518 1523 1528 1532 1536 1540 1543 1546 1549 1552 1554 1557 1558 1560 1561 1562 1563 1564 1565 1565 1566 1566 1566 1566 1567 1567 1567 1567 1568 1568 1568 1569
1494 1496 1501 1509 1517 1518 1505 1497 1494 1487 1487 1488 1491 1495 1499 1505 1510 1515 1520 1525 1530 1534 1538 1542 1545 1548 1551 1554 1556 1558 1560 1561 1562 1564 1565 1566 1566 1567 1567 1567 1567 1568 1568 1568 1568 1569 1569 1570 1570
1496 1497 1498 1502 1506 1517 1518 1508 1484 1484 1484 1486 1489 1493 1498 1502 1508 1513 1518 1523 1528 1532 1536 1540 1544 1547 1550 1553 1555 1557 1559 1561 1562 1564 1565 1566 1567 1567 1568 1568 1569 1569 1569 1569 1570 1570 1571 1571 1571
1489 1492 1497 1509 1509 1506 1513 1508 1480 1481 1482 1486 1489 1493 1497 1501 1506 1510 1515 1521 1526 1530 1534 1538 1542 1545 1549 1551 1554 1556 1558 1560 1562 1563 1565 1566 1567 1568 1568 1569 1570 1570 1570 1571 1571 1571 1572 1572 1572